FW9033 Weather Reports


time (UTC)temp
F
wind
direction
speed
knots
gust
knots
rain 1hr
in
rain 24hr
in
rain mn
in
humidity
%
barometer
mb
20260507220803 65 127 2.6 2.6 0.00 0.00 0.00 57 1006.2
20260507220302 66 124 1.7 2.6 0.00 0.00 0.00 55 1006.0
20260507215758 67 148 2.6 5.2 0.00 0.00 0.00 53 1005.9
20260507215256 67 111 1.7 1.7 0.00 0.00 0.00 46 1006.1
20260507214752 67 105 1.7 1.7 0.00 0.00 0.00 44 1006.0
20260507214250 66 100 2.6 2.6 0.00 0.00 0.00 46 1006.0
20260507213745 66 40 0.9 1.7 0.00 0.00 0.00 46 1005.8
20260507213242 66 148 2.6 2.6 0.00 0.00 0.00 45 1006.0
20260507212738 66 100 2.6 4.3 0.00 0.00 0.00 44 1005.7
20260507212235 68 77 0.9 1.7 0.00 0.00 0.00 41 1006.1
20260507211732 68 74 0.0 0.9 0.00 0.00 0.00 40 1005.9
20260507211228 67 41 0.0 0.0 0.00 0.00 0.00 38 1005.8
20260507210725 68 71 0.9 0.9 0.00 0.00 0.00 39 1005.9
20260507210222 0 0.0 0.0 0.00 0.00 0.00 1005.8
20260507205718 69 133 2.6 4.3 0.00 0.00 0.00 40 1005.7
20260507205215 69 133 2.6 4.3 0.00 0.00 0.00 40 1006.0
20260507204711 67 41 0.9 1.7 0.00 0.00 0.00 41 1005.8
20260507204209 0 0.0 0.0 0.00 0.00 0.00 1005.9
20260507203707 66 78 1.7 1.7 0.00 0.00 0.00 45 1006.0
20260507203204 66 78 1.7 1.7 0.00 0.00 0.00 45 1006.0
20260507202700 67 109 2.6 2.6 0.00 0.00 0.00 45 1006.0
20260507202156 67 66 0.9 0.9 0.00 0.00 0.00 43 1006.1
20260507201651 68 39 0.9 0.9 0.00 0.00 0.00 44 1005.9
20260507201148 67 93 1.7 1.7 0.00 0.00 0.00 44 1006.0
20260507200644 67 62 0.0 0.0 0.00 0.00 0.00 43 1006.0
20260507200140 67 86 0.9 1.7 0.00 0.00 0.00 46 1006.1
20260507195637 68 70 0.9 0.9 0.00 0.00 0.00 46 1006.3
20260507195134 70 18 2.6 2.6 0.00 0.00 0.00 41 1006.1
20260507194631 70 18 2.6 2.6 0.00 0.00 0.00 41 1006.1
20260507194126 68 333 4.3 5.2 0.00 0.00 0.00 41 1006.2
20260507193624 69 315 4.3 5.2 0.00 0.00 0.00 42 1006.5
20260507193121 70 72 0.0 0.0 0.00 0.00 0.00 40 1006.7
20260507192617 69 33 0.9 0.9 0.00 0.00 0.00 41 1006.8
20260507192114 69 86 0.0 0.0 0.00 0.00 0.00 42 1006.5
20260507191610 68 93 1.7 1.7 0.00 0.00 0.00 41 1006.7
20260507191107 68 44 0.0 0.0 0.00 0.00 0.00 44 1006.7
20260507190604 69 42 0.0 0.0 0.00 0.00 0.00 42 1006.8
20260507185601 68 113 4.3 7.0 0.00 0.00 0.00 45 1006.9
20260507185057 67 43 1.7 1.7 0.00 0.00 0.00 44 1007.1
20260507184555 65 93 0.9 1.7 0.00 0.00 0.00 45 1007.1
20260507184053 67 30 0.9 1.7 0.00 0.00 0.00 43 1007.3
20260507183548 68 17 4.3 5.2 0.00 0.00 0.00 41 1007.2
20260507183046 68 65 0.9 0.9 0.00 0.00 0.00 44 1007.1
20260507182542 68 340 1.7 2.6 0.00 0.00 0.00 42 1007.3
20260507182038 68 72 0.9 0.9 0.00 0.00 0.00 42 1007.4
20260507181535 67 54 0.0 0.0 0.00 0.00 0.00 43 1007.6
20260507181031 67 12 4.3 5.2 0.00 0.00 0.00 42 1007.6
20260507180528 67 156 1.7 1.7 0.00 0.00 0.00 43 1007.4
20260507180025 67 82 0.9 1.7 0.00 0.00 0.00 43 1007.7
20260507175521 67 11 2.6 4.3 0.00 0.00 0.00 44 1007.6
20260507175019 67 38 0.9 1.7 0.00 0.00 0.00 44 1007.7
20260507174515 67 21 2.6 2.6 0.00 0.00 0.00 43 1007.7
20260507174013 66 51 0.0 0.0 0.00 0.00 0.00 44 1008.0
20260507173510 65 47 1.7 1.7 0.00 0.00 0.00 44 1008.2
20260507173008 64 50 0.9 0.9 0.00 0.00 0.00 46 1008.2
20260507172503 64 54 0.0 0.0 0.00 0.00 0.00 45 1008.3
20260507172000 65 106 0.0 0.9 0.00 0.00 0.00 45 1008.5
20260507171455 66 344 6.1 7.0 0.00 0.00 0.00 47 1008.4
20260507170953 66 14 1.7 2.6 0.00 0.00 0.00 45 1008.5
20260507170450 65 345 2.6 4.3 0.00 0.00 0.00 46 1008.6
20260507165946 64 141 3.5 4.3 0.00 0.00 0.00 45 1008.8
20260507165442 64 65 0.0 0.9 0.00 0.00 0.00 46 1008.9
20260507164938 65 354 4.3 5.2 0.00 0.00 0.00 45 1009.0
20260507164435 65 356 0.9 2.6 0.00 0.00 0.00 47 1009.1
20260507163932 64 67 2.6 4.3 0.00 0.00 0.00 46 1009.3
20260507163429 64 100 0.9 0.9 0.00 0.00 0.00 45 1009.4
20260507162926 63 62 3.5 4.3 0.00 0.00 0.00 45 1009.4
20260507162421 63 2 3.5 4.3 0.00 0.00 0.00 45 1009.3
20260507161919 62 36 2.6 2.6 0.00 0.00 0.00 46 1009.8
20260507161414 63 356 1.7 1.7 0.00 0.00 0.00 45 1009.6
20260507160912 63 28 1.7 2.6 0.00 0.00 0.00 46 1009.6
20260507160408 63 68 0.9 1.7 0.00 0.00 0.00 45 1009.6
20260507155904 63 58 0.9 1.7 0.00 0.00 0.00 45 1009.8
20260507155400 62 51 2.6 2.6 0.00 0.00 0.00 48 1009.8
20260507154857 61 11 3.5 4.3 0.00 0.00 0.00 48 1010.2
20260507154354 60 61 0.9 0.9 0.00 0.00 0.00 49 1010.1
20260507153851 60 352 1.7 4.3 0.00 0.00 0.00 50 1010.2
20260507153347 61 98 0.9 0.9 0.00 0.00 0.00 47 1009.9
20260507152844 61 119 0.9 2.6 0.00 0.00 0.00 50 1010.3
20260507152340 61 59 2.6 2.6 0.00 0.00 0.00 49 1010.2
20260507151837 60 86 4.3 5.2 0.00 0.00 0.00 53 1010.1
20260507151333 60 107 0.9 1.7 0.00 0.00 0.00 49 1010.4
20260507150830 60 79 1.7 1.7 0.00 0.00 0.00 51 1010.4
20260507150327 60 40 2.6 2.6 0.00 0.00 0.00 52 1010.6
20260507145823 59 258 1.7 2.6 0.00 0.00 0.00 53 1010.6
20260507145319 59 127 1.7 2.6 0.00 0.00 0.00 54 1010.9
20260507144816 58 349 1.7 2.6 0.00 0.00 0.00 53 1010.8
20260507144314 58 91 2.6 4.3 0.00 0.00 0.00 53 1010.7
20260507143810 58 36 1.7 2.6 0.00 0.00 0.00 53 1010.8
20260507143308 57 61 0.9 1.7 0.00 0.00 0.00 55 1011.1
20260507142803 56 49 0.9 1.7 0.00 0.00 0.00 59 1010.9
20260507142300 56 59 0.0 0.0 0.00 0.00 0.00 58 1011.0
20260507141756 56 22 2.6 4.3 0.00 0.00 0.00 58 1011.1
20260507141254 55 25 2.6 2.6 0.00 0.00 0.00 57 1011.5
20260507140749 55 46 0.9 0.9 0.00 0.00 0.00 57 1011.4
20260507140247 55 0 1.7 2.6 0.00 0.00 0.00 57 1011.5
20260507135744 55 47 0.0 0.0 0.00 0.00 0.00 57 1011.8
20260507135242 55 56 1.7 1.7 0.00 0.00 0.00 57 1011.9
20260507134737 55 36 2.6 4.3 0.00 0.00 0.00 57 1011.9
20260507134234 54 52 0.0 0.9 0.00 0.00 0.00 57 1012.0
20260507133730 54 50 1.7 2.6 0.00 0.00 0.00 56 1012.0
20260507133227 54 38 0.9 0.9 0.00 0.00 0.00 56 1012.1
20260507132725 54 5 2.6 4.3 0.00 0.00 0.00 57 1012.0
20260507132221 54 41 0.9 0.9 0.00 0.00 0.00 57 1012.0
20260507131718 54 20 2.6 2.6 0.00 0.00 0.00 56 1012.0
20260507131215 54 47 0.0 0.9 0.00 0.00 0.00 59 1011.9
20260507130712 54 37 2.6 2.6 0.00 0.00 0.00 57 1012.0
20260507130210 54 82 2.6 2.6 0.00 0.00 0.00 57 1011.8
20260507125708 54 47 0.9 1.7 0.00 0.00 0.00 57 1011.9
20260507125206 54 32 0.9 0.9 0.00 0.00 0.00 58 1011.8
20260507124702 54 51 0.0 0.9 0.00 0.00 0.00 58 1011.9
20260507124159 53 41 0.9 0.9 0.00 0.00 0.00 59 1012.0
20260507123657 53 46 0.9 0.9 0.00 0.00 0.00 59 1012.1
20260507123154 53 42 0.0 0.9 0.00 0.00 0.00 60 1011.9
20260507122649 53 62 0.0 0.0 0.00 0.00 0.00 59 1011.9
20260507122145 53 43 0.9 0.9 0.00 0.00 0.00 60 1011.9
20260507121641 53 63 0.9 0.9 0.00 0.00 0.00 59 1011.8
20260507121137 53 51 1.7 1.7 0.00 0.00 0.00 59 1012.0
20260507120634 53 60 0.0 0.9 0.00 0.00 0.00 59 1011.8
20260507120131 53 53 0.0 0.0 0.00 0.00 0.00 60 1011.8
20260507115627 53 37 0.9 0.9 0.00 0.00 0.00 60 1011.9
20260507115123 53 66 0.0 0.0 0.00 0.00 0.00 60 1011.4
20260507114619 53 66 0.0 0.0 0.00 0.00 0.00 60 1011.5
20260507114116 53 59 0.0 0.0 0.00 0.00 0.00 61 1011.5
20260507113613 53 48 0.0 0.9 0.00 0.00 0.00 61 1011.6
20260507113110 52 61 0.0 0.0 0.00 0.00 0.00 61 1011.4
20260507112608 52 31 1.7 1.7 0.00 0.00 0.00 61 1011.2
20260507112105 52 57 0.9 0.9 0.00 0.00 0.00 60 1011.3
20260507111602 52 71 0.9 0.9 0.00 0.00 0.00 61 1011.1
20260507111058 52 30 0.9 0.9 0.00 0.00 0.00 61 1011.0
20260507110554 52 42 0.9 1.7 0.00 0.00 0.00 61 1011.1
20260507110051 52 48 0.9 0.9 0.00 0.00 0.00 62 1011.2
20260507105548 53 73 0.9 0.9 0.00 0.00 0.00 61 1011.3
20260507105044 53 67 0.0 0.9 0.00 0.00 0.00 62 1011.1
20260507104542 53 52 0.9 1.7 0.00 0.00 0.00 62 1011.0
20260507104038 53 42 0.0 0.9 0.00 0.00 0.00 63 1011.0
20260507103534 53 61 0.9 0.9 0.00 0.00 0.00 63 1010.8
20260507103031 53 61 0.9 0.9 0.00 0.00 0.00 63 1010.6
20260507102528 53 37 0.9 0.9 0.00 0.00 0.00 64 1010.7
20260507102024 53 46 0.9 0.9 0.00 0.00 0.00 64 1010.5
20260507101519 53 34 0.9 1.7 0.00 0.00 0.00 64 1010.5
20260507101016 53 47 0.0 0.9 0.00 0.00 0.00 64 1010.5
20260507100513 53 19 1.7 1.7 0.00 0.00 0.00 64 1010.6
20260507100011 53 33 0.9 0.9 0.00 0.00 0.00 65 1010.5
20260507095509 53 59 1.7 2.6 0.00 0.00 0.00 66 1010.4
20260507095005 53 42 0.9 1.7 0.00 0.00 0.00 68 1010.4
20260507094502 53 30 1.7 1.7 0.00 0.00 0.00 71 1010.2
20260507093959 53 28 0.0 0.9 0.00 0.00 0.00 76 1010.0
20260507093456 54 47 0.9 0.9 0.00 0.00 0.00 77 1010.3
20260507092954 54 49 0.9 0.9 0.00 0.00 0.00 78 1010.3
20260507092451 54 43 0.9 0.9 0.00 0.00 0.00 78 1010.2
20260507091948 54 64 0.9 0.9 0.00 0.00 0.00 78 1010.3
20260507091444 54 47 0.9 0.9 0.00 0.00 0.00 78 1010.1
20260507090940 54 51 0.0 0.9 0.00 0.00 0.00 78 1010.2
20260507090436 54 53 0.0 0.0 0.00 0.00 0.00 78 1010.3
20260507085932 54 52 0.0 0.9 0.00 0.00 0.00 78 1009.9
20260507085430 54 86 0.0 0.0 0.00 0.00 0.00 78 1010.3
20260507084927 54 42 0.0 0.0 0.00 0.00 0.00 78 1010.3
20260507084424 54 53 0.0 0.9 0.00 0.00 0.00 78 1010.2
20260507083921 54 51 0.0 0.9 0.00 0.00 0.00 78 1010.1
20260507083417 54 46 0.0 0.0 0.00 0.00 0.00 77 1010.3
20260507082913 54 42 0.9 0.9 0.00 0.00 0.00 77 1010.4
20260507082409 54 39 0.9 0.9 0.00 0.00 0.00 77 1010.1
20260507081907 54 83 0.9 0.9 0.00 0.00 0.00 77 1010.1
20260507081403 54 7 0.9 1.7 0.00 0.00 0.00 77 1010.3
20260507080859 54 48 0.0 0.9 0.00 0.00 0.00 77 1010.2
20260507080356 54 48 0.9 0.9 0.00 0.00 0.00 77 1010.2
20260507075851 54 48 0.9 0.9 0.00 0.00 0.00 77 1010.0
20260507075347 54 66 0.0 0.0 0.00 0.00 0.00 77 1010.0
20260507074844 54 64 0.0 0.9 0.00 0.00 0.00 77 1009.7
20260507074341 54 57 0.0 0.0 0.00 0.00 0.00 77 1009.8
20260507073838 54 47 0.0 0.9 0.00 0.00 0.00 77 1009.9
20260507073335 54 61 0.0 0.0 0.00 0.00 0.00 78 1009.6
20260507072832 54 42 0.0 0.0 0.00 0.00 0.00 78 1009.5
20260507072330 55 45 0.0 0.9 0.00 0.00 0.00 78 1009.6
20260507071827 54 43 0.0 0.9 0.00 0.00 0.00 78 1009.8
20260507071324 54 44 0.0 0.0 0.00 0.00 0.00 78 1009.7
20260507070820 55 45 0.0 0.0 0.00 0.00 0.00 78 1009.6
20260507070318 54 45 0.0 0.0 0.00 0.00 0.00 78 1009.6
20260507065814 55 45 0.0 0.0 0.00 0.00 0.00 78 1009.7
20260507065311 55 84 0.0 0.0 0.00 0.00 0.00 78 1009.7
20260507064808 55 59 0.0 0.0 0.00 0.00 0.00 77 1009.8
20260507064307 55 18 0.9 1.7 0.00 0.00 0.00 77 1009.7
20260507063804 55 51 0.0 0.0 0.00 0.00 0.00 77 1009.8
20260507063301 55 39 0.9 0.9 0.00 0.00 0.00 77 1009.8
20260507062758 55 46 0.9 0.9 0.00 0.00 0.00 76 1010.0
20260507062255 55 45 0.9 1.7 0.00 0.00 0.00 76 1010.1
20260507061753 55 28 3.5 5.2 0.00 0.00 0.00 76 1010.0
20260507061250 55 52 0.9 0.9 0.00 0.00 0.00 76 1009.9
20260507060748 55 44 0.0 0.0 0.00 0.00 0.00 76 1010.0
20260507060245 55 39 0.9 0.9 0.00 0.00 0.00 76 1010.4
20260507055741 55 54 0.9 0.9 0.00 0.00 0.00 76 1010.5
20260507055237 55 7 1.7 1.7 0.00 0.00 0.00 76 1010.4
20260507054733 55 54 0.0 0.0 0.00 0.00 0.00 77 1010.2
20260507054230 55 50 0.0 0.9 0.00 0.00 0.00 77 1010.4
20260507053727 55 55 0.0 0.0 0.00 0.00 0.00 77 1010.3
20260507053225 56 52 0.9 0.9 0.00 0.00 0.00 78 1010.3
20260507052724 56 62 0.0 0.0 0.00 0.00 0.00 78 1010.4
20260507052219 56 64 0.9 0.9 0.00 0.00 0.00 78 1010.0
20260507051718 56 26 0.9 1.7 0.00 0.00 0.00 78 1010.0
20260507051214 56 60 0.9 1.7 0.00 0.00 0.00 78 1009.8
20260507050711 56 35 0.0 0.9 0.00 0.00 0.00 78 1010.1
20260507050208 56 71 0.9 1.7 0.00 0.00 0.00 79 1010.0
20260507045705 56 33 2.6 4.3 0.00 0.00 0.00 79 1009.9
20260507045201 56 99 0.9 1.7 0.00 0.00 0.00 79 1009.9
20260507044658 56 20 1.7 1.7 0.00 0.00 0.00 80 1009.7
20260507044154 56 37 1.7 4.3 0.00 0.00 0.00 79 1009.7
20260507043651 56 48 0.9 1.7 0.00 0.00 0.00 80 1009.7
20260507043148 56 44 0.0 0.9 0.00 0.00 0.00 82 1009.9
20260507042644 56 350 3.5 5.2 0.00 0.00 0.00 82 1009.6
20260507042139 57 21 2.6 5.2 0.00 0.00 0.00 83 1008.9
20260507041637 57 34 2.6 4.3 0.00 0.00 0.00 83 1009.1
20260507041133 57 41 1.7 2.6 0.00 0.00 0.00 82 1009.6
20260507040630 57 45 0.0 0.9 0.00 0.00 0.00 83 1009.5
20260507040127 57 32 1.7 1.7 0.00 0.00 0.00 82 1009.9
20260507035622 57 46 0.0 0.9 0.00 0.15 0.15 82 1009.3
20260507035118 57 32 0.9 1.7 0.00 0.15 0.15 82 1009.4
20260507034615 57 29 0.9 0.9 0.00 0.15 0.15 81 1009.1
20260507034113 58 13 1.7 2.6 0.00 0.15 0.15 81 1009.4
20260507033611 58 66 0.0 0.0 0.00 0.15 0.15 81 1009.7
20260507033108 58 45 1.7 1.7 0.00 0.15 0.15 81 1009.7
20260507032606 58 343 3.5 5.2 0.00 0.15 0.15 81 1009.6
20260507032102 58 142 0.9 1.7 0.00 0.15 0.15 80 1009.5
20260507031558 59 233 1.7 4.3 0.00 0.15 0.15 80 1009.5
20260507031055 59 51 0.0 0.9 0.00 0.15 0.15 80 1009.4
20260507030551 59 351 1.7 1.7 0.00 0.15 0.15 79 1009.0
20260507030050 59 29 0.9 1.7 0.00 0.15 0.15 79 1009.0
20260507025547 59 91 0.0 0.9 0.00 0.15 0.15 78 1009.3
20260507025044 59 28 1.7 2.6 0.00 0.15 0.15 78 1009.5
20260507024542 59 42 0.9 1.7 0.00 0.15 0.15 78 1009.4
20260507024038 59 325 4.3 7.0 0.00 0.15 0.15 78 1009.6
20260507023533 59 55 0.9 1.7 0.00 0.15 0.15 78 1009.4
20260507023032 59 335 2.6 2.6 0.00 0.15 0.15 78 1009.4
20260507022528 59 356 0.0 1.7 0.00 0.15 0.15 78 1009.2
20260507022023 59 12 0.9 2.6 0.00 0.15 0.15 78 1009.0
20260507021520 60 356 2.6 4.3 0.00 0.15 0.15 78 1008.7
20260507021016 60 71 0.9 1.7 0.00 0.15 0.15 78 1008.8
20260507020514 60 72 0.9 1.7 0.00 0.15 0.15 78 1008.7
20260507020010 60 23 0.9 0.9 0.00 0.15 0.15 78 1008.7
20260507015509 61 76 0.9 1.7 0.00 0.15 0.15 78 1008.8
20260507015006 61 2 0.0 0.9 0.00 0.15 0.15 78 1009.1
20260507014502 61 38 0.9 1.7 0.00 0.15 0.15 77 1008.8
20260507013958 61 49 0.9 1.7 0.00 0.15 0.15 78 1008.5
20260507013455 61 352 0.9 1.7 0.00 0.15 0.15 78 1009.0
20260507012952 62 33 0.9 1.7 0.00 0.15 0.15 78 1008.9
20260507012449 62 58 0.0 0.0 0.00 0.15 0.15 78 1008.7
20260507011946 62 41 0.9 1.7 0.00 0.15 0.15 78 1008.6
20260507011443 62 60 0.0 0.9 0.00 0.15 0.15 79 1008.3
20260507010938 62 54 0.0 0.0 0.00 0.15 0.15 79 1008.3
20260507010433 62 70 0.0 0.9 0.00 0.15 0.15 79 1008.0
20260507005930 62 48 0.9 0.9 0.00 0.15 0.15 79 1008.3
20260507005427 62 46 0.9 0.9 0.00 0.15 0.15 79 1008.5
20260507004923 62 60 1.7 1.7 0.00 0.15 0.15 79 1008.3
20260507004420 63 59 1.7 1.7 0.00 0.15 0.15 79 1008.3
20260507003918 63 68 0.0 0.9 0.00 0.15 0.15 80 1008.6
20260507003413 63 49 1.7 1.7 0.00 0.15 0.15 81 1008.4
20260507002908 63 32 0.0 0.9 0.00 0.15 0.15 82 1008.3
20260507002404 63 49 1.7 1.7 0.00 0.15 0.15 81 1008.3
20260507001902 63 83 2.6 2.6 0.00 0.15 0.15 81 1008.1
20260507001359 63 86 0.0 0.0 0.00 0.15 0.15 82 1008.1
20260507000856 64 57 2.6 2.6 0.00 0.15 0.15 83 1008.0
20260507000351 64 44 0.0 0.0 0.00 0.15 0.15 83 1008.2
20260506235847 64 43 0.9 0.9 0.00 0.15 0.15 83 1008.1
20260506235345 64 7 0.9 2.6 0.00 0.15 0.15 83 1008.0
20260506234840 65 35 1.7 1.7 0.00 0.15 0.15 82 1008.0
20260506234338 65 61 0.0 0.0 0.00 0.15 0.15 81 1008.0
20260506233836 65 44 1.7 1.7 0.00 0.15 0.15 81 1007.7
20260506233331 66 59 0.9 1.7 0.00 0.15 0.15 80 1007.4
20260506232829 66 357 1.7 1.7 0.00 0.15 0.15 80 1007.4
20260506232324 66 30 0.9 1.7 0.00 0.15 0.15 80 1007.4
20260506231821 66 41 0.9 1.7 0.00 0.15 0.15 80 1006.9
20260506231319 66 30 3.5 6.1 0.00 0.15 0.15 81 1007.3
20260506230816 67 18 2.6 2.6 0.00 0.15 0.15 82 1006.9
20260506230313 67 348 0.9 1.7 0.00 0.15 0.15 82 1006.9
20260506225809 67 38 1.7 1.7 0.00 0.15 0.15 81 1007.0
20260506225306 67 56 0.9 0.9 0.00 0.15 0.15 82 1006.7
20260506224803 67 334 2.6 4.3 0.00 0.15 0.15 82 1006.6
20260506224300 67 107 2.6 4.3 0.00 0.15 0.15 82 1006.7
20260506223756 68 67 1.7 2.6 0.00 0.15 0.15 83 1006.7
20260506223251 68 38 0.0 0.0 0.00 0.15 0.15 83 1006.6
20260506222749 68 52 1.7 1.7 0.00 0.15 0.15 83 1006.8
20260506222244 69 60 2.6 4.3 0.00 0.15 0.15 84 1006.3
20260506221737 69 42 0.0 0.0 0.00 0.15 0.15 85 1006.1
20260506221234 69 109 0.0 0.9 0.00 0.15 0.15 85 1006.3